This is the latest recevied weather packets stored in our database for station/object NM5PB. If no packets are shown the sender has not sent any weather packets the latest 10 day(s).
| Time | Temp. | Humidity | Pressure | Rain* | Wind** | Luminosity | Snow |
|---|---|---|---|---|---|---|---|
| 1777739464 | 12.78° C | 42% | - | 0 mm | - | - | - |
| 1777738864 | 12.22° C | 44% | - | 0 mm | - | - | - |
| 1777738264 | 12.78° C | 42% | - | 0 mm | - | - | - |
| 1777737664 | 12.22° C | 42% | - | 0 mm | - | - | - |
| 1777737064 | 12.78° C | 45% | - | 0 mm | - | - | - |
| 1777736464 | 12.78° C | 45% | - | 0 mm | - | - | - |
| 1777735864 | 12.22° C | 46% | - | 0 mm | - | - | - |
| 1777735264 | 12.22° C | 46% | - | 0 mm | - | - | - |
| 1777734664 | 11.67° C | 52% | - | 0 mm | - | - | - |
| 1777734064 | 11.67° C | 51% | - | 0 mm | - | - | - |
| 1777733464 | 11.67° C | 54% | - | 0 mm | - | - | - |
| 1777732864 | 11.11° C | 58% | - | 0 mm | - | - | - |
| 1777732264 | 10.56° C | 61% | - | 0 mm | - | - | - |
| 1777731664 | 10° C | 64% | - | 0 mm | - | - | - |
| 1777731064 | 9.44° C | 67% | - | 0 mm | - | - | - |
| 1777730464 | 8.89° C | 71% | - | 0 mm | - | - | - |
| 1777729864 | 8.33° C | 72% | - | 0 mm | - | - | - |
| 1777729264 | 7.78° C | 75% | - | 0 mm | - | - | - |
| 1777728664 | 7.22° C | 76% | - | 0 mm | - | - | - |
| 1777728064 | 6.67° C | 79% | - | 0 mm | - | - | - |
| 1777727464 | 5.56° C | 81% | - | 0 mm | - | - | - |
| 1777726864 | 4.44° C | 84% | - | 0 mm | - | - | - |
| 1777726264 | 3.33° C | 87% | - | 0 mm | - | - | - |
| 1777725664 | 2.22° C | 91% | - | 0 mm | - | - | - |
| 1777725064 | 1.67° C | 94% | - | 0 mm | - | - | - |
* Rain latest hour (hover to see other rain measurements)
** Current wind speed in m/s (hover to see current wind gust speed)